EZY9680 EGGP-LGMK

Flight info

Callsign EZY9680
Flight time N/A
Altitude 35000
Route BARTN1T BARTN UL975 DESIG L603 LAMSO DCT EVELI DCT OTMEC DCT MISGO DCT DODEN DCT NEGIX DCT DINKU DCT BESNI DCT LATLO DCT OBEDI DCT GORPA DCT DEVUL DCT REMSO DCT MEDUX UM867 KOGAT DCT ERANA UL737 TSL UN130 MES UN139 ERIMA R32 LETSO LETSO1X
Aircraft A320/M-SDE3FGHIRWY/LB1

Departure

Time 2026-05-04 19:01
Airport Liverpool John Lennon Airport (EGGP)

Arrival

Time N/A
Airport Mykonos Island National Airport (LGMK)
Time Latitude Longitude Altitude Speed Heading
2026-05-04 18:29 53.33646 -2.85957 89 ft 0 kts 355°
2026-05-04 18:32 53.33645 -2.85957 89 ft 0 kts 355°
2026-05-04 18:45 53.33644 -2.85957 89 ft 0 kts 355°
2026-05-04 18:53 53.33633 -2.85955 90 ft 4 kts
2026-05-04 18:53 53.33609 -2.85968 89 ft 4 kts 44°
2026-05-04 18:53 53.33595 -2.86004 89 ft 4 kts 75°
2026-05-04 18:54 53.33591 -2.86040 90 ft 0 kts 85°
2026-05-04 18:56 53.33592 -2.86005 89 ft 6 kts 88°
2026-05-04 18:56 53.33594 -2.85891 92 ft 13 kts 86°
2026-05-04 18:56 53.33603 -2.85707 90 ft 14 kts 85°
2026-05-04 18:56 53.33561 -2.85655 91 ft 8 kts 171°
2026-05-04 18:57 53.33511 -2.85639 90 ft 7 kts 148°
2026-05-04 18:57 53.33503 -2.85559 91 ft 7 kts 86°
2026-05-04 18:57 53.33507 -2.85478 89 ft 9 kts 85°
2026-05-04 18:57 53.33513 -2.85347 90 ft 14 kts 85°
2026-05-04 18:58 53.33522 -2.85152 92 ft 19 kts 86°
2026-05-04 18:58 53.33533 -2.84896 89 ft 25 kts 85°
2026-05-04 18:58 53.33548 -2.84582 89 ft 30 kts 85°
2026-05-04 18:58 53.33566 -2.84214 89 ft 34 kts 85°
2026-05-04 18:59 53.33586 -2.83800 91 ft 37 kts 85°
2026-05-04 18:59 53.33599 -2.83404 91 ft 30 kts 105°
2026-05-04 18:59 53.33535 -2.83306 89 ft 0 kts 179°
2026-05-04 19:00 53.33533 -2.83306 89 ft 1 kts 178°
2026-05-04 19:00 53.33515 -2.83302 90 ft 4 kts 173°
2026-05-04 19:00 53.33479 -2.83296 89 ft 6 kts 175°
2026-05-04 19:00 53.33441 -2.83340 90 ft 10 kts 248°
2026-05-04 19:01 53.33422 -2.83726 92 ft 69 kts 266°
2026-05-04 19:01 53.33366 -2.84915 90 ft 134 kts 265°
2026-05-04 19:01 53.33301 -2.86715 295 ft 167 kts 269°
2026-05-04 19:01 53.33243 -2.88737 896 ft 179 kts 271°
2026-05-04 19:02 53.33195 -2.90866 1569 ft 186 kts 272°
2026-05-04 19:02 53.33267 -2.92995 2292 ft 178 kts 289°
2026-05-04 19:02 53.33887 -2.94651 3022 ft 165 kts 325°
2026-05-04 19:02 53.34979 -2.95148 3493 ft 174 kts
2026-05-04 19:03 53.36193 -2.94467 3740 ft 195 kts 21°
2026-05-04 19:03 53.37491 -2.93629 4016 ft 203 kts 16°
2026-05-04 19:03 53.38838 -2.92934 4037 ft 202 kts 14°
2026-05-04 19:03 53.40184 -2.92238 4035 ft 203 kts 21°
2026-05-04 19:04 53.41338 -2.90875 4034 ft 206 kts 47°
2026-05-04 19:04 53.41993 -2.88693 4039 ft 216 kts 76°
2026-05-04 19:04 53.42288 -2.86203 4042 ft 218 kts 78°
2026-05-04 19:04 53.42583 -2.83616 4027 ft 236 kts 77°
2026-05-04 19:05 53.42892 -2.80860 4019 ft 242 kts 78°
2026-05-04 19:05 53.43199 -2.78079 4021 ft 243 kts 78°
2026-05-04 19:05 53.43505 -2.75291 4014 ft 242 kts 78°
2026-05-04 19:05 53.43812 -2.72510 4021 ft 243 kts 78°
2026-05-04 19:06 53.44119 -2.69716 4022 ft 244 kts 78°
2026-05-04 19:06 53.44429 -2.66895 4017 ft 256 kts 79°
2026-05-04 19:06 53.44752 -2.63947 4013 ft 257 kts 78°
2026-05-04 19:06 53.45076 -2.60988 4013 ft 259 kts 78°
2026-05-04 19:07 53.45403 -2.58009 4014 ft 260 kts 78°
2026-05-04 19:07 53.45735 -2.54992 4013 ft 266 kts 78°
2026-05-04 19:07 53.46071 -2.51916 4015 ft 268 kts 78°
2026-05-04 19:07 53.46407 -2.48838 4014 ft 269 kts 78°
2026-05-04 19:08 53.46743 -2.45757 4013 ft 268 kts 79°
2026-05-04 19:08 53.47075 -2.42682 4014 ft 268 kts 79°
2026-05-04 19:08 53.47412 -2.39570 4486 ft 272 kts 78°
2026-05-04 19:08 53.47751 -2.36436 5372 ft 274 kts 78°
2026-05-04 19:09 53.48093 -2.33281 6227 ft 277 kts 78°
2026-05-04 19:09 53.48438 -2.30087 6963 ft 282 kts 78°
2026-05-04 19:09 53.48669 -2.27922 7454 ft 285 kts 79°
2026-05-04 19:09 53.49137 -2.23509 8455 ft 290 kts 79°
2026-05-04 19:10 53.49495 -2.20140 8782 ft 294 kts 79°
2026-05-04 19:10 53.49733 -2.17891 8842 ft 295 kts 79°
2026-05-04 19:10 53.50094 -2.14485 9073 ft 298 kts 79°
2026-05-04 19:10 53.50456 -2.11059 9910 ft 299 kts 79°
2026-05-04 19:11 53.50824 -2.07560 10374 ft 314 kts 79°
2026-05-04 19:11 53.51213 -2.03829 10695 ft 331 kts 79°
2026-05-04 19:11 53.51613 -1.99973 11338 ft 337 kts 80°
2026-05-04 19:11 53.52017 -1.96069 11884 ft 342 kts 80°
2026-05-04 19:12 53.52375 -1.92057 12271 ft 351 kts 86°
2026-05-04 19:12 53.51788 -1.83790 12989 ft 377 kts 107°
2026-05-04 19:12 53.51023 -1.79516 13473 ft 385 kts 107°
2026-05-04 19:13 53.50250 -1.75179 14062 ft 390 kts 107°
2026-05-04 19:13 53.49472 -1.70798 14642 ft 393 kts 107°
2026-05-04 19:13 53.48690 -1.66390 15213 ft 396 kts 107°
2026-05-04 19:13 53.47901 -1.61942 15778 ft 399 kts 107°
2026-05-04 19:14 53.47108 -1.57460 16101 ft 403 kts 107°
2026-05-04 19:14 53.46298 -1.52893 16420 ft 411 kts 107°
2026-05-04 19:14 53.45473 -1.48276 16868 ft 416 kts 108°
2026-05-04 19:14 53.44635 -1.43610 17380 ft 420 kts 108°
2026-05-04 19:15 53.43786 -1.38899 17884 ft 423 kts 108°
2026-05-04 19:15 53.42932 -1.34182 18377 ft 425 kts 108°
2026-05-04 19:15 53.42066 -1.29406 18829 ft 428 kts 108°
2026-05-04 19:15 53.41200 -1.24630 19236 ft 430 kts 108°
2026-05-04 19:16 53.40328 -1.19826 19677 ft 432 kts 108°
2026-05-04 19:16 53.39452 -1.15006 20141 ft 433 kts 107°
2026-05-04 19:16 53.38569 -1.10171 20606 ft 435 kts 107°
2026-05-04 19:16 53.37679 -1.05329 21021 ft 436 kts 108°
2026-05-04 19:17 53.36783 -1.00466 21425 ft 439 kts 108°
2026-05-04 19:17 53.35881 -0.95573 21801 ft 441 kts 108°
2026-05-04 19:17 53.34971 -0.90645 22195 ft 443 kts 107°
2026-05-04 19:17 53.34058 -0.85702 22596 ft 445 kts 107°
2026-05-04 19:18 53.33141 -0.80754 22982 ft 447 kts 108°
2026-05-04 19:18 53.32213 -0.75772 23367 ft 449 kts 108°
2026-05-04 19:18 53.31281 -0.70786 23729 ft 451 kts 107°
2026-05-04 19:18 53.30344 -0.65774 23974 ft 452 kts 107°
2026-05-04 19:19 53.29402 -0.60754 24320 ft 453 kts 107°
2026-05-04 19:19 53.28455 -0.55720 24643 ft 454 kts 107°
2026-05-04 19:19 53.27504 -0.50692 24970 ft 454 kts 107°
2026-05-04 19:19 53.26560 -0.45720 25256 ft 456 kts 107°
2026-05-04 19:20 53.25601 -0.40660 25546 ft 457 kts 107°
2026-05-04 19:20 53.24640 -0.35604 25813 ft 459 kts 108°
2026-05-04 19:20 53.23668 -0.30495 25985 ft 463 kts 108°
2026-05-04 19:20 53.22690 -0.25364 26234 ft 465 kts 108°
2026-05-04 19:21 53.21705 -0.20220 26508 ft 467 kts 108°
2026-05-04 19:21 53.20712 -0.15061 26841 ft 466 kts 108°
2026-05-04 19:21 53.19719 -0.09931 27266 ft 464 kts 108°
2026-05-04 19:21 53.18729 -0.04821 27701 ft 461 kts 108°
2026-05-04 19:22 53.17744 0.00259 28111 ft 460 kts 108°
2026-05-04 19:22 53.16757 0.05346 28337 ft 463 kts 108°
2026-05-04 19:22 53.15764 0.10459 28655 ft 463 kts 108°
2026-05-04 19:22 53.14770 0.15555 29036 ft 462 kts 108°
2026-05-04 19:23 53.13774 0.20635 29449 ft 461 kts 108°
2026-05-04 19:23 53.12778 0.25700 29873 ft 458 kts 108°
2026-05-04 19:23 53.11785 0.30733 30283 ft 456 kts 108°
2026-05-04 19:23 53.10794 0.35740 30642 ft 454 kts 108°
2026-05-04 19:24 53.09806 0.40719 30971 ft 453 kts 108°
2026-05-04 19:24 53.08818 0.45697 31274 ft 453 kts 108°
2026-05-04 19:24 53.07832 0.50656 31591 ft 451 kts 108°
2026-05-04 19:24 53.06840 0.55626 31810 ft 453 kts 109°
2026-05-04 19:25 53.05842 0.60609 32007 ft 455 kts 109°
2026-05-04 19:25 53.04840 0.65600 32278 ft 455 kts 109°
2026-05-04 19:25 53.03837 0.70588 32563 ft 455 kts 109°
2026-05-04 19:25 53.02847 0.75507 32866 ft 454 kts 109°
2026-05-04 19:26 53.01848 0.80471 33190 ft 453 kts 109°
2026-05-04 19:26 53.00851 0.85425 33498 ft 452 kts 109°
2026-05-04 19:26 52.99851 0.90358 33780 ft 452 kts 109°
2026-05-04 19:26 52.98842 0.95306 34018 ft 452 kts 109°
2026-05-04 19:27 52.97883 1.00283 34244 ft 453 kts 105°
2026-05-04 19:27 52.97244 1.05407 34414 ft 454 kts 102°
2026-05-04 19:27 52.96656 1.10559 34587 ft 456 kts 102°
2026-05-04 19:27 52.96064 1.15726 34806 ft 456 kts 102°
2026-05-04 19:28 52.95468 1.20902 34997 ft 457 kts 102°
2026-05-04 19:28 52.94262 1.31290 35066 ft 459 kts 102°
2026-05-04 19:29 52.93042 1.41685 35056 ft 460 kts 102°
2026-05-04 19:29 52.91811 1.52082 35059 ft 460 kts 102°
2026-05-04 19:30 52.90566 1.62519 35059 ft 463 kts 102°
2026-05-04 19:30 52.89305 1.72966 35065 ft 463 kts 102°
2026-05-04 19:31 52.88034 1.83424 35056 ft 463 kts 102°
2026-05-04 19:31 52.86765 1.93819 35057 ft 463 kts 103°
2026-05-04 19:32 52.85478 2.04256 35059 ft 463 kts 103°
2026-05-04 19:32 52.84179 2.14702 35050 ft 464 kts 103°
2026-05-04 19:33 52.82870 2.25167 35045 ft 465 kts 103°
2026-05-04 19:33 52.81550 2.35630 35052 ft 465 kts 103°
2026-05-04 19:34 52.80219 2.46094 35046 ft 465 kts 103°
2026-05-04 19:34 52.78885 2.56554 35047 ft 465 kts 104°
2026-05-04 19:35 52.77537 2.67005 35041 ft 466 kts 104°
2026-05-04 19:35 52.76176 2.77466 35043 ft 466 kts 104°
2026-05-04 19:36 52.74805 2.87916 35045 ft 466 kts 104°
2026-05-04 19:36 52.73403 2.98356 35048 ft 465 kts 107°
2026-05-04 19:37 52.71213 3.08344 35030 ft 463 kts 114°
2026-05-04 19:37 52.68880 3.18241 35037 ft 463 kts 114°
2026-05-04 19:38 52.66546 3.28137 35037 ft 463 kts 114°
2026-05-04 19:38 52.64195 3.38015 35038 ft 463 kts 114°
2026-05-04 19:39 52.61905 3.47933 35046 ft 464 kts 113°
2026-05-04 19:39 52.59739 3.57862 35035 ft 464 kts 112°
2026-05-04 19:40 52.57553 3.67855 35035 ft 464 kts 113°
2026-05-04 19:40 52.55319 3.77816 35038 ft 464 kts 114°
2026-05-04 19:41 52.53050 3.87763 35035 ft 465 kts 114°
2026-05-04 19:41 52.50780 3.97705 35037 ft 465 kts 114°
2026-05-04 19:42 52.48520 4.07632 35027 ft 465 kts 114°
2026-05-04 19:42 52.46251 4.17569 35037 ft 465 kts 114°
2026-05-04 19:43 52.43970 4.27469 35034 ft 464 kts 114°
2026-05-04 19:43 52.41680 4.37347 35039 ft 463 kts 114°
2026-05-04 19:44 52.39398 4.47203 35036 ft 462 kts 114°
2026-05-04 19:44 52.37102 4.57028 35026 ft 462 kts 114°
2026-05-04 19:45 52.34802 4.66824 35024 ft 461 kts 114°
2026-05-04 19:45 52.32493 4.76608 35021 ft 461 kts 115°
2026-05-04 19:46 52.30179 4.86371 35018 ft 461 kts 114°
2026-05-04 19:46 52.27861 4.96142 35009 ft 461 kts 115°
2026-05-04 19:47 52.25538 5.05883 35004 ft 461 kts 115°
2026-05-04 19:47 52.23203 5.15610 35007 ft 460 kts 115°
2026-05-04 19:48 52.20875 5.25259 35010 ft 460 kts 115°
2026-05-04 19:48 52.18523 5.34961 35002 ft 460 kts 115°
2026-05-04 19:49 52.16171 5.44650 34990 ft 460 kts 116°
2026-05-04 19:49 52.13805 5.54323 34991 ft 459 kts 116°
2026-05-04 19:50 52.11439 5.63969 34984 ft 458 kts 116°
2026-05-04 19:50 52.09067 5.73587 34983 ft 458 kts 116°
2026-05-04 19:51 52.06287 5.82802 34981 ft 450 kts 129°
2026-05-04 19:51 52.02186 5.90317 34967 ft 443 kts 140°
2026-05-04 19:52 51.97803 5.97338 34970 ft 443 kts 140°
2026-05-04 19:52 51.93413 6.04357 34970 ft 443 kts 140°
2026-05-04 19:53 51.89022 6.11367 34969 ft 443 kts 140°
2026-05-04 19:53 51.84623 6.18361 34971 ft 443 kts 140°
2026-05-04 19:54 51.80230 6.25347 34977 ft 443 kts 140°
2026-05-04 19:54 51.75843 6.32310 34957 ft 442 kts 141°
2026-05-04 19:55 51.71471 6.39211 34961 ft 442 kts 141°
2026-05-04 19:55 51.67065 6.46138 34962 ft 443 kts 141°
2026-05-04 19:56 51.62653 6.53059 34949 ft 443 kts 141°
2026-05-04 19:56 51.58240 6.59973 34956 ft 443 kts 141°
2026-05-04 19:57 51.53826 6.66871 34958 ft 443 kts 141°
2026-05-04 19:57 51.50148 6.72601 34966 ft 443 kts 141°
2026-05-04 19:58 51.45716 6.79469 34958 ft 443 kts 142°
2026-05-04 19:58 51.41284 6.86331 34966 ft 443 kts 142°
2026-05-04 19:59 51.36852 6.93198 34977 ft 443 kts 141°
2026-05-04 19:59 51.32435 7.00052 34979 ft 442 kts 141°
2026-05-04 20:00 51.28050 7.06837 34983 ft 441 kts 141°
2026-05-04 20:00 51.22890 7.14778 34992 ft 440 kts 141°
2026-05-04 20:01 51.19189 7.20458 34975 ft 441 kts 142°
2026-05-04 20:01 51.14794 7.27192 34983 ft 442 kts 142°
2026-05-04 20:02 51.10366 7.33975 34987 ft 442 kts 142°
2026-05-04 20:02 51.05932 7.40742 34995 ft 442 kts 142°
2026-05-04 20:03 51.01492 7.47488 34996 ft 441 kts 142°
2026-05-04 20:03 50.97048 7.54226 35006 ft 441 kts 142°
2026-05-04 20:04 50.92606 7.60934 34990 ft 441 kts 142°
2026-05-04 20:04 50.88152 7.67649 34994 ft 442 kts 142°
2026-05-04 20:05 50.83682 7.74365 34992 ft 443 kts 142°
2026-05-04 20:05 50.79210 7.81062 34993 ft 443 kts 142°
2026-05-04 20:06 50.74736 7.87768 34993 ft 443 kts 142°
2026-05-04 20:06 50.70257 7.94452 34999 ft 443 kts 142°
2026-05-04 20:07 50.65797 8.01072 34993 ft 443 kts 142°
2026-05-04 20:07 50.61314 8.07718 35000 ft 443 kts 141°
2026-05-04 20:08 50.57249 8.15205 35001 ft 448 kts 134°
2026-05-04 20:08 50.53359 8.22867 35000 ft 448 kts 134°
2026-05-04 20:09 50.49492 8.30450 34998 ft 447 kts 134°
2026-05-04 20:09 50.45574 8.38117 34970 ft 447 kts 134°
2026-05-04 20:10 50.41670 8.45715 34976 ft 448 kts 134°
2026-05-04 20:10 50.37776 8.53253 34979 ft 447 kts 135°
2026-05-04 20:11 50.33660 8.60508 34984 ft 445 kts 138°
2026-05-04 20:11 50.29374 8.67489 34986 ft 444 kts 139°
2026-05-04 20:12 50.25096 8.74457 34990 ft 444 kts 138°
2026-05-04 20:12 50.20866 8.81490 34993 ft 444 kts 138°
2026-05-04 20:13 50.16644 8.88541 34994 ft 444 kts 138°
2026-05-04 20:13 50.12413 8.95562 34991 ft 444 kts 138°
2026-05-04 20:14 50.08172 9.02562 34990 ft 444 kts 138°
2026-05-04 20:14 50.03931 9.09543 34975 ft 444 kts 138°
2026-05-04 20:15 49.99688 9.16512 34960 ft 444 kts 138°
2026-05-04 20:15 49.95440 9.23474 34961 ft 444 kts 138°
2026-05-04 20:16 49.91210 9.30388 34973 ft 444 kts 138°
2026-05-04 20:16 49.86945 9.37335 34974 ft 445 kts 138°
2026-05-04 20:17 49.82668 9.44277 34977 ft 445 kts 138°
2026-05-04 20:17 49.78387 9.51228 34970 ft 446 kts 138°
2026-05-04 20:18 49.74100 9.58147 34969 ft 445 kts 138°
2026-05-04 20:18 49.69808 9.65048 34975 ft 445 kts 138°
2026-05-04 20:19 49.65509 9.71955 34984 ft 445 kts 138°
2026-05-04 20:19 49.61212 9.78835 34992 ft 446 kts 138°
2026-05-04 20:20 49.56907 9.85712 35007 ft 446 kts 138°
2026-05-04 20:20 49.52595 9.92580 34979 ft 445 kts 138°
2026-05-04 20:21 49.48283 9.99427 34985 ft 446 kts 138°
2026-05-04 20:21 49.41841 10.09647 34991 ft 446 kts 138°
2026-05-04 20:22 49.37522 10.16473 34992 ft 446 kts 138°
2026-05-04 20:22 49.33158 10.23327 34989 ft 446 kts 138°
2026-05-04 20:23 49.28874 10.30057 34973 ft 442 kts 138°
2026-05-04 20:23 49.24558 10.36791 34995 ft 443 kts 138°
2026-05-04 20:24 49.20232 10.43515 35000 ft 443 kts 138°
2026-05-04 20:24 49.15911 10.50224 35006 ft 443 kts 138°
2026-05-04 20:25 49.11591 10.56924 35000 ft 443 kts 138°
2026-05-04 20:25 49.07266 10.63623 34979 ft 443 kts 138°
2026-05-04 20:26 49.02928 10.70290 34981 ft 443 kts 138°
2026-05-04 20:26 48.98585 10.76951 34981 ft 443 kts 138°
2026-05-04 20:27 48.94241 10.83607 34976 ft 443 kts 138°
2026-05-04 20:27 48.89854 10.90162 34960 ft 443 kts 140°
2026-05-04 20:28 48.85292 10.96473 34938 ft 443 kts 142°
2026-05-04 20:28 48.80690 11.02704 34922 ft 444 kts 141°
2026-05-04 20:29 48.76101 11.08990 34921 ft 445 kts 141°
2026-05-04 20:29 48.71532 11.15305 34929 ft 444 kts 140°
2026-05-04 20:30 48.66961 11.21598 34931 ft 444 kts 141°
2026-05-04 20:30 48.62558 11.28176 34933 ft 447 kts 135°
2026-05-04 20:31 48.58413 11.35088 34926 ft 447 kts 135°
2026-05-04 20:31 48.54229 11.42030 34929 ft 447 kts 135°
2026-05-04 20:32 48.50042 11.48968 34921 ft 447 kts 135°
2026-05-04 20:32 48.45844 11.55899 34929 ft 447 kts 135°
2026-05-04 20:33 48.41645 11.62819 34933 ft 447 kts 135°
2026-05-04 20:33 48.37445 11.69723 34926 ft 447 kts 135°
2026-05-04 20:34 48.33230 11.76623 34927 ft 448 kts 135°
2026-05-04 20:34 48.29011 11.83520 34931 ft 448 kts 135°
2026-05-04 20:35 48.24785 11.90420 34934 ft 449 kts 135°
2026-05-04 20:35 48.20559 11.97310 34930 ft 449 kts 135°
2026-05-04 20:36 48.16320 12.04182 34909 ft 449 kts 136°
2026-05-04 20:36 48.12099 12.10994 34907 ft 449 kts 136°
2026-05-04 20:37 48.07841 12.17858 34906 ft 449 kts 136°
2026-05-04 20:37 48.03587 12.24708 34908 ft 450 kts 136°
2026-05-04 20:38 47.99327 12.31552 34908 ft 450 kts 136°
2026-05-04 20:38 47.95058 12.38389 34901 ft 450 kts 136°
2026-05-04 20:39 47.90783 12.45216 34900 ft 450 kts 136°
2026-05-04 20:39 47.86505 12.52022 34908 ft 450 kts 136°
2026-05-04 20:40 47.82219 12.58819 34908 ft 450 kts 136°
2026-05-04 20:40 47.77955 12.65578 34924 ft 451 kts 136°
2026-05-04 20:41 47.73657 12.72367 34914 ft 451 kts 136°
2026-05-04 20:41 47.69352 12.79149 34918 ft 451 kts 136°
2026-05-04 20:42 47.64996 12.85847 34929 ft 451 kts 138°
2026-05-04 20:42 47.60534 12.92380 34935 ft 450 kts 139°
2026-05-04 20:43 47.56028 12.98947 35190 ft 457 kts 138°
2026-05-04 20:43 47.53771 13.02264 35413 ft 457 kts 138°
2026-05-04 20:43 47.51521 13.05593 35640 ft 457 kts 137°
2026-05-04 20:44 47.49285 13.08937 35900 ft 457 kts 137°
2026-05-04 20:44 47.47070 13.12293 36180 ft 455 kts 136°
2026-05-04 20:44 47.44888 13.15663 36472 ft 454 kts 136°
2026-05-04 20:44 47.42745 13.19081 36765 ft 452 kts 135°
2026-05-04 20:45 47.40647 13.22523 37079 ft 449 kts 134°
2026-05-04 20:45 47.38619 13.25926 37422 ft 447 kts 133°
2026-05-04 20:45 47.36599 13.29390 37766 ft 443 kts 133°
2026-05-04 20:45 47.34630 13.32867 38151 ft 440 kts 131°
2026-05-04 20:46 47.32778 13.36250 38505 ft 436 kts 130°